| time (UTC) | temp C | wind direction | speed KPH | gust KPH | rain 1hr cm | rain 24hr cm | rain mn cm | humidity % | barometer mb |
| 20260505101554 | 11 | 306 | 1.6 | 0.0 | 0.00 | 0.00 | 0.00 | 87 | 1012.6 |
| 20260505094551 | 11 | 277 | 3.2 | 0.0 | 0.00 | 0.00 | 0.00 | 88 | 1012.3 |
| 20260505093011 | 11 | 333 | 3.2 | 0.0 | 0.00 | 0.00 | 0.00 | 88 | 1012.3 |
| 20260505091554 | 11 | 302 | 6.4 | 0.0 | 0.00 | 0.00 | 0.00 | 88 | 1012.3 |
| 20260505090029 | 11 | 343 | 4.8 | 0.0 | 0.00 | 0.00 | 0.00 | 88 | 1012.2 |
| 20260505084547 | 11 | 315 | 4.8 | 0.0 | 0.00 | 0.00 | 0.00 | 89 | 1012.1 |
| 20260505083110 | 11 | 290 | 6.4 | 0.0 | 0.00 | 0.00 | 0.00 | 89 | 1011.9 |
| 20260505081629 | 11 | 324 | 6.4 | 0.0 | 0.00 | 0.00 | 0.00 | 89 | 1011.9 |
| 20260505080047 | 11 | 344 | 3.2 | 0.0 | 0.00 | 0.00 | 0.00 | 89 | 1011.8 |
| 20260505074601 | 11 | 298 | 4.8 | 0.0 | 0.00 | 0.00 | 0.00 | 89 | 1011.7 |
| 20260505073030 | 11 | 360 | 6.4 | 0.0 | 0.00 | 0.00 | 0.00 | 89 | 1011.7 |
| 20260505071550 | 11 | 5 | 8.0 | 0.0 | 0.00 | 0.00 | 0.00 | 89 | 1011.5 |
| 20260505070017 | 11 | 321 | 8.0 | 0.0 | 0.00 | 0.00 | 0.00 | 89 | 1011.3 |
| 20260505064537 | 11 | 22 | 8.0 | 0.0 | 0.00 | 0.00 | 0.00 | 89 | 1011.3 |
| 20260505063112 | 11 | 338 | 9.7 | 0.0 | 0.00 | 0.00 | 0.00 | 89 | 1011.2 |
| 20260505061601 | 11 | 308 | 8.0 | 0.0 | 0.00 | 0.00 | 0.00 | 88 | 1011.3 |
| 20260505060036 | 11 | 336 | 6.4 | 0.0 | 0.00 | 0.00 | 0.00 | 88 | 1010.9 |
| 20260505054513 | 11 | 321 | 8.0 | 0.0 | 0.00 | 0.00 | 0.00 | 88 | 1010.9 |
| 20260505053048 | 11 | 360 | 8.0 | 0.0 | 0.00 | 0.00 | 0.00 | 87 | 1010.8 |
| 20260505051600 | 11 | 348 | 9.7 | 0.0 | 0.00 | 0.00 | 0.00 | 87 | 1010.9 |
| 20260505041544 | 12 | 325 | 4.8 | 0.0 | 0.00 | 0.00 | 0.00 | 85 | 1010.6 |
| 20260505040059 | 12 | 334 | 6.4 | 0.0 | 0.00 | 0.00 | 0.00 | 84 | 1010.5 |
| 20260505034526 | 12 | 348 | 4.8 | 0.0 | 0.00 | 0.00 | 0.00 | 83 | 1010.2 |
| 20260505033043 | 13 | 336 | 4.8 | 0.0 | 0.00 | 0.00 | 0.00 | 82 | 1009.9 |
| 20260505031607 | 13 | 350 | 6.4 | 0.0 | 0.00 | 0.00 | 0.00 | 80 | 1009.8 |
| 20260505030020 | 14 | 320 | 9.7 | 0.0 | 0.00 | 0.00 | 0.00 | 78 | 1009.7 |
| 20260505024539 | 15 | 344 | 9.7 | 0.0 | 0.00 | 0.00 | 0.00 | 76 | 1009.4 |
| 20260505023021 | 15 | 310 | 8.0 | 0.0 | 0.00 | 0.00 | 0.00 | 74 | 1009.3 |
| 20260505021559 | 16 | 342 | 11.3 | 0.0 | 0.00 | 0.00 | 0.00 | 73 | 1009.1 |
| 20260505020028 | 16 | 341 | 14.5 | 0.0 | 0.00 | 0.00 | 0.00 | 71 | 1009.0 |
| 20260505014609 | 17 | 323 | 11.3 | 0.0 | 0.00 | 0.00 | 0.00 | 69 | 1008.9 |
| 20260505013031 | 17 | 334 | 12.9 | 0.0 | 0.00 | 0.00 | 0.00 | 69 | 1008.8 |
| 20260505011551 | 18 | 360 | 9.7 | 0.0 | 0.00 | 0.00 | 0.00 | 69 | 1008.8 |
| 20260505010016 | 19 | 320 | 11.3 | 0.0 | 0.00 | 0.00 | 0.00 | 68 | 1009.0 |
| 20260505004542 | 20 | 342 | 11.3 | 0.0 | 0.00 | 0.00 | 0.00 | 65 | 1008.9 |
| 20260505003057 | 20 | 336 | 11.3 | 0.0 | 0.00 | 0.00 | 0.00 | 63 | 1008.9 |
| 20260505001504 | 21 | 317 | 11.3 | 0.0 | 0.00 | 0.00 | 0.00 | 62 | 1008.9 |
| 20260505000032 | 21 | 313 | 9.7 | 0.0 | 0.00 | 0.00 | 0.00 | 60 | 1008.7 |
| 20260504234533 | 21 | 355 | 11.3 | 0.0 | 0.00 | 0.00 | 0.00 | 61 | 1008.6 |
| 20260504233034 | 21 | 301 | 11.3 | 0.0 | 0.00 | 0.00 | 0.00 | 60 | 1008.6 |
| 20260504231545 | 21 | 15 | 11.3 | 0.0 | 0.00 | 0.00 | 0.00 | 59 | 1008.5 |
| 20260504230007 | 21 | 355 | 9.7 | 0.0 | 0.00 | 0.00 | 0.00 | 55 | 1008.7 |
| 20260504224547 | 22 | 319 | 8.0 | 0.0 | 0.00 | 0.00 | 0.00 | 57 | 1008.9 |
| 20260504223022 | 21 | 280 | 8.0 | 0.0 | 0.00 | 0.00 | 0.00 | 59 | 1009.0 |
| 20260504221554 | 22 | 5 | 6.4 | 0.0 | 0.00 | 0.00 | 0.00 | 60 | 1009.2 |
| 20260504220047 | 21 | 323 | 4.8 | 0.0 | 0.00 | 0.00 | 0.00 | 60 | 1009.4 |
| 20260504214547 | 22 | 192 | 4.8 | 0.0 | 0.00 | 0.00 | 0.00 | 61 | 1009.4 |
| 20260504213004 | 21 | 266 | 3.2 | 0.0 | 0.00 | 0.00 | 0.00 | 64 | 1009.4 |
| 20260504211527 | 21 | 271 | 1.6 | 0.0 | 0.00 | 0.00 | 0.00 | 65 | 1009.6 |
| 20260504210042 | 21 | 331 | 3.2 | 0.0 | 0.00 | 0.00 | 0.00 | 67 | 1009.8 |
| 20260504204606 | 21 | 207 | 3.2 | 0.0 | 0.00 | 0.00 | 0.00 | 65 | 1009.9 |
| 20260504203057 | 20 | 217 | 3.2 | 0.0 | 0.00 | 0.00 | 0.00 | 66 | 1010.2 |
| 20260504201512 | 20 | 208 | 3.2 | 0.0 | 0.00 | 0.00 | 0.00 | 67 | 1010.3 |
| 20260504200024 | 20 | 217 | 4.8 | 0.0 | 0.00 | 0.00 | 0.00 | 64 | 1010.4 |
| 20260504194555 | 19 | 240 | 4.8 | 0.0 | 0.00 | 0.00 | 0.00 | 69 | 1010.4 |
| 20260504193100 | 19 | 202 | 6.4 | 0.0 | 0.00 | 0.00 | 0.00 | 69 | 1010.6 |
| 20260504191513 | 19 | 225 | 4.8 | 0.0 | 0.00 | 0.00 | 0.00 | 69 | 1010.7 |
| 20260504190035 | 18 | 186 | 3.2 | 0.0 | 0.00 | 0.00 | 0.00 | 68 | 1010.9 |
| 20260504184534 | 18 | 227 | 3.2 | 0.0 | 0.00 | 0.00 | 0.00 | 70 | 1010.9 |
| 20260504183057 | 17 | 355 | 3.2 | 0.0 | 0.00 | 0.00 | 0.00 | 70 | 1010.9 |
| 20260504181537 | 17 | 223 | 3.2 | 0.0 | 0.00 | 0.00 | 0.00 | 71 | 1011.0 |
| 20260504180042 | 17 | 175 | 3.2 | 0.0 | 0.00 | 0.00 | 0.00 | 73 | 1011.0 |
| 20260504174552 | 16 | 232 | 3.2 | 0.0 | 0.00 | 0.00 | 0.00 | 73 | 1011.0 |
| 20260504173034 | 16 | 342 | 3.2 | 0.0 | 0.00 | 0.00 | 0.00 | 74 | 1011.0 |
| 20260504171534 | 16 | 336 | 3.2 | 0.0 | 0.00 | 0.00 | 0.00 | 75 | 1011.0 |